Wind_Speed
29 28 25 23 22 22 22 21 20 20 20 19 18 16 16 16 17 17 16 16 15 16 16 15 14 14 14 16 17 17 18 18 19 19 20 20 20 20 21 22 22 23 23 21 20 19 18 20 26 31 33 32 31 27 22 21 21 21 23 25 26 27 27
29 28 27 25 24 23 22 21 20 21 21 20 19 17 16 17 17 17 17 16 15 15 16 15 14 14 15 16 17 17 18 18 19 19 20 20 20 20 21 22 22 22 22 21 20 20 19 18 21 26 30 32 34 33 27 23 21 20 20 23 25 27 28
28 28 29 28 26 24 22 20 21 22 22 22 20 17 16 17 16 16 16 16 15 15 16 15 14 14 15 16 16 17 17 18 19 20 20 19 20 21 22 23 23 22 22 22 22 22 22 21 21 22 25 26 29 33 32 29 26 23 21 22 24 27 28
25 26 27 29 29 26 22 21 22 23 23 23 21 18 17 17 16 16 16 16 16 16 16 15 14 13 14 15 16 17 17 18 19 19 19 19 20 21 22 23 23 23 22 23 24 25 24 23 22 21 22 22 24 28 31 31 31 28 24 23 24 26 28
25 26 26 27 28 27 24 23 24 24 23 23 21 18 17 17 16 16 16 17 18 17 17 15 13 13 14 15 16 16 17 18 18 18 18 19 20 21 22 23 23 23 24 24 25 26 26 25 23 22 21 21 22 26 28 30 31 30 28 25 24 25 27
26 26 27 27 27 26 26 24 24 23 23 22 20 19 18 18 17 16 18 20 20 18 17 15 13 13 14 14 15 16 17 18 17 18 18 19 20 22 23 23 24 24 25 25 26 26 26 26 24 22 21 21 21 24 27 29 30 30 29 28 26 25 26
26 26 27 27 26 26 25 24 23 22 22 21 20 20 19 19 18 18 20 20 19 18 16 15 13 13 13 14 15 16 17 17 18 18 19 20 22 23 23 24 25 25 25 26 26 27 27 26 25 23 22 22 22 23 27 29 30 30 28 28 28 26 26
26 26 27 27 26 25 24 22 21 21 20 20 21 21 20 20 19 19 19 17 16 17 16 14 13 13 14 14 16 17 17 18 18 19 20 22 23 24 24 25 26 26 26 27 27 27 27 26 26 25 23 21 21 22 25 29 31 30 28 28 28 28 27
26 26 26 26 26 24 22 21 20 20 19 20 22 22 21 20 20 19 18 15 15 16 15 14 13 13 14 15 16 17 18 18 19 20 21 23 25 25 25 26 26 27 27 27 28 28 28 28 27 27 26 24 22 21 22 26 30 30 28 27 28 28 28
25 24 24 24 24 23 21 20 20 19 19 21 22 22 21 20 20 19 17 15 16 16 15 14 14 14 14 15 17 17 18 19 19 21 23 25 25 26 26 27 27 27 27 28 28 29 29 29 29 28 28 27 25 23 22 23 26 28 27 26 26 27 28
24 22 22 22 22 22 21 21 21 20 20 21 22 22 20 20 21 20 16 15 16 16 15 14 14 14 15 16 17 18 19 19 21 22 24 25 26 26 26 26 26 26 27 28 28 28 29 29 29 29 28 28 27 25 23 22 24 25 25 25 25 26 27
22 21 21 21 22 22 22 22 21 21 21 22 22 22 21 21 22 19 16 15 16 15 15 14 15 15 16 17 18 19 19 21 22 24 25 26 26 26 26 25 25 26 26 27 27 28 29 29 29 29 29 28 27 26 25 24 24 24 24 25 25 25 27
21 21 22 22 22 21 22 21 21 21 22 23 23 22 22 22 22 18 15 16 16 16 15 15 15 16 17 18 19 20 21 22 24 25 26 27 27 26 25 25 25 25 26 26 27 28 28 29 29 29 29 28 27 26 26 25 26 26 26 26 26 26 27
22 22 22 21 20 20 20 21 21 21 22 23 23 23 23 23 20 17 16 17 17 16 15 15 16 17 18 19 20 21 22 23 25 26 27 28 27 26 25 25 25 25 25 26 27 28 29 29 29 29 28 27 27 26 27 27 27 28 27 27 28 27 28
22 22 20 19 19 18 18 19 19 21 23 24 23 23 23 22 19 18 18 19 17 16 15 16 17 18 19 20 21 22 23 24 25 27 28 28 28 26 26 26 26 26 26 27 27 28 29 29 29 29 28 27 27 27 28 28 28 28 28 28 28 28 29
21 20 19 18 17 17 17 18 19 20 22 24 23 22 21 19 18 18 19 19 17 15 15 16 18 19 20 22 23 24 25 25 26 28 29 29 28 27 27 27 27 27 27 28 29 29 29 29 29 28 28 27 28 29 29 29 29 29 28 28 29 29 30
20 19 18 17 17 17 17 17 18 19 21 23 23 20 18 17 18 19 19 19 17 15 16 18 19 20 22 23 24 25 25 27 28 29 29 30 29 28 28 29 28 29 29 29 29 29 30 29 29 28 27 28 29 30 30 30 30 29 29 29 30 30 30
20 19 17 17 17 17 16 16 17 18 20 21 21 19 17 17 18 19 19 18 17 16 17 19 21 22 23 24 24 25 27 28 29 30 30 30 29 29 30 30 30 29 30 30 30 30 30 29 28 28 28 28 30 30 31 31 30 29 29 29 29 30 30
19 18 16 16 16 16 15 16 16 16 18 19 19 19 18 17 18 19 19 18 17 17 19 21 22 23 24 25 25 26 27 29 30 30 30 29 30 31 31 31 31 30 30 30 30 30 29 28 28 28 28 29 30 31 31 31 31 30 29 29 29 29 29
18 17 16 16 16 15 15 16 16 16 17 18 19 19 18 18 18 19 18 17 17 19 21 22 23 24 25 25 26 27 28 29 30 31 30 29 30 31 32 32 31 31 31 30 30 29 28 28 28 28 29 30 31 32 32 32 32 31 30 30 30 29 29
17 17 16 16 17 16 16 17 17 17 17 19 20 20 19 19 19 18 17 17 19 21 22 24 24 25 25 25 26 27 29 30 31 31 30 30 30 31 31 31 31 30 30 29 29 28 28 28 28 29 30 31 32 33 33 32 32 31 31 30 30 30 30
17 17 17 18 18 18 18 18 18 17 18 20 20 19 19 19 18 18 18 19 21 23 24 25 25 25 25 26 27 28 29 31 31 31 30 30 31 31 31 30 29 28 28 28 28 28 29 29 30 31 32 33 33 33 32 32 32 31 31 30 30 31 31
17 17 17 18 19 20 20 19 18 17 18 18 18 18 18 18 18 19 20 21 23 24 25 24 24 24 25 26 27 29 30 31 31 30 30 30 31 31 30 29 27 27 27 27 28 28 29 30 31 32 33 33 33 32 32 31 31 31 31 31 32 32 33
17 17 17 18 19 20 20 18 17 17 17 17 16 17 18 19 19 21 22 23 24 24 24 24 24 24 25 27 28 30 30 30 30 30 30 30 30 29 28 27 26 26 27 27 28 29 30 31 31 32 32 32 32 31 31 31 31 32 32 33 34 34 35
19 18 18 19 20 20 19 18 17 17 16 16 17 18 19 20 21 22 23 23 24 23 23 23 23 24 26 27 29 30 29 29 29 29 29 29 28 27 26 26 26 26 27 27 28 29 30 30 31 31 31 31 30 30 31 32 33 33 34 35 36 37 37
21 21 21 21 21 20 20 19 18 17 16 17 18 19 20 20 21 22 23 23 23 23 23 23 23 25 26 28 28 28 28 28 28 28 28 27 26 25 25 26 26 26 27 27 28 29 29 30 30 30 30 30 30 30 32 33 34 35 36 37 38 39 40
23 23 24 24 22 21 21 20 19 18 18 19 20 20 21 21 21 22 22 23 24 24 23 23 23 25 26 28 28 27 27 27 28 28 27 26 25 25 25 26 26 26 26 27 27 28 28 29 29 29 29 29 31 32 33 35 36 37 38 40 40 41 42
24 25 25 25 24 23 23 22 21 20 21 22 22 21 21 21 22 22 23 24 24 23 23 23 23 24 26 27 26 26 27 27 27 27 26 25 25 25 25 25 25 26 26 26 27 27 28 27 27 28 29 31 32 34 36 37 38 39 40 41 42 43 44
25 25 25 26 26 26 26 24 23 23 24 23 22 21 21 22 23 24 25 25 24 23 22 22 23 25 27 26 25 26 27 28 27 26 25 25 25 25 25 25 25 25 25 26 26 27 27 27 27 29 31 32 34 36 37 38 40 41 42 43 44 44 44
25 25 26 27 28 28 27 26 25 25 25 22 21 20 20 20 23 25 25 25 24 23 23 23 25 27 27 26 26 27 28 28 27 26 25 25 25 25 24 24 24 24 25 26 26 26 26 27 29 30 32 34 35 37 38 40 41 42 43 44 45 45 45
25 26 27 28 29 29 28 27 26 26 24 21 19 17 17 18 23 25 25 24 24 23 23 25 26 28 27 26 26 27 28 28 27 26 26 26 25 24 23 23 24 24 25 26 26 26 27 28 30 32 33 35 37 38 39 40 41 43 44 45 45 46 46
26 27 28 28 28 28 27 26 25 25 25 21 18 18 18 20 24 26 24 23 24 24 25 26 27 27 26 26 27 28 29 28 27 27 27 26 24 23 23 23 23 24 25 26 26 27 28 29 31 33 34 36 37 38 40 41 42 44 45 45 46 46 47
29 30 29 28 28 27 24 22 21 21 22 21 20 21 22 24 24 24 23 24 25 26 26 25 26 26 27 27 28 29 28 28 27 27 26 25 23 23 22 22 23 24 25 26 26 28 29 31 32 34 35 36 37 39 40 41 43 44 44 45 45 46 46
32 32 30 28 28 25 21 19 18 17 18 19 21 23 24 24 22 22 24 26 27 26 25 25 26 27 27 28 28 28 28 27 27 27 25 24 23 22 22 22 23 24 25 26 27 28 30 32 33 34 36 37 38 39 40 42 43 43 44 44 45 45 44
33 32 29 29 27 24 22 21 20 19 19 20 21 23 23 23 22 23 25 27 27 26 25 27 28 28 28 28 28 28 27 27 27 26 24 23 22 22 22 23 24 25 25 26 28 29 31 33 34 35 37 38 39 40 41 42 43 43 43 44 44 44 43
32 31 29 29 28 26 24 23 21 21 22 23 23 24 25 25 25 26 26 26 26 26 27 29 29 28 28 29 29 28 28 28 27 25 24 23 22 21 22 23 24 25 26 27 28 30 32 33 35 36 37 38 39 40 41 42 42 43 43 43 43 42 40
31 31 30 29 28 27 25 23 22 22 23 23 24 24 26 27 27 27 27 26 27 28 29 29 29 28 29 29 29 29 29 28 26 25 23 22 21 21 22 23 24 25 26 27 29 31 33 34 35 37 38 39 40 40 41 41 42 42 42 42 41 39 37
Wind_Direction
224 226 231 234 237 237 237 239 240 243 245 244 245 248 250 250 246 241 239 243 249 253 256 260 268 277 285 290 293 294 294 293 295 297 298 299 301 305 307 309 311 313 313 311 310 309 307 307 310 311 313 313 311 309 308 305 302 300 299 301 302 302 302
226 228 230 232 235 236 237 239 240 241 242 243 247 250 251 250 246 241 239 243 250 253 255 259 267 279 288 293 295 294 294 294 296 297 297 299 303 307 309 311 314 315 315 314 313 311 309 306 304 305 309 312 312 313 314 311 307 303 300 299 300 300 301
228 229 230 231 233 235 236 237 238 239 241 244 248 249 248 248 245 241 239 244 250 252 255 259 268 280 289 293 294 293 293 295 295 295 296 300 305 309 312 315 317 316 315 314 314 314 312 310 308 305 305 307 308 311 314 315 312 310 309 305 301 300 300
230 232 234 234 234 235 235 236 238 239 241 245 248 247 246 245 243 241 242 247 251 253 254 258 268 280 288 292 293 292 293 293 293 293 297 303 308 311 314 316 316 315 313 314 315 315 315 314 313 310 308 308 305 306 310 312 312 314 314 310 304 301 300
233 233 230 231 233 233 233 236 239 240 242 244 246 246 245 243 243 244 248 254 255 254 254 258 267 279 286 289 291 291 292 291 292 295 300 306 310 312 314 316 315 314 313 314 315 316 317 317 316 314 312 311 308 306 308 310 311 314 315 312 306 301 298
233 229 225 227 231 232 233 236 238 241 243 245 245 244 242 241 241 244 251 257 257 254 253 258 267 277 284 288 290 291 291 291 294 299 304 308 311 313 315 316 315 314 314 315 315 316 317 317 317 316 315 314 311 308 308 310 310 312 315 313 308 302 298
228 224 222 227 231 232 232 234 238 242 245 246 244 241 240 239 239 243 249 253 253 252 253 259 268 278 285 289 291 292 292 294 298 302 306 310 312 314 316 316 316 315 315 315 315 316 317 317 317 318 317 317 316 312 311 312 312 311 313 312 309 305 301
223 222 222 228 231 231 232 235 239 242 243 243 242 240 238 237 240 243 245 247 249 251 254 261 270 279 285 289 292 292 294 297 299 303 308 311 314 315 316 317 316 316 316 316 316 317 317 318 318 319 320 319 318 315 313 313 313 313 313 312 309 307 305
222 222 223 227 228 228 231 236 239 240 239 239 240 240 236 237 240 242 241 243 248 252 256 264 273 279 284 289 292 293 295 296 299 303 308 312 315 317 318 318 317 316 317 317 317 318 319 319 320 321 322 323 321 318 314 312 312 313 314 313 310 309 308
225 224 224 225 225 227 230 234 237 238 238 239 240 239 237 238 239 237 238 243 248 252 258 266 272 278 285 290 292 293 294 295 299 304 309 313 317 319 319 318 318 317 318 318 319 320 320 321 322 322 323 324 323 321 316 311 310 311 312 313 311 310 310
225 227 227 225 223 226 230 233 236 235 235 236 239 238 236 237 235 232 236 242 246 251 258 265 272 279 286 290 292 293 294 296 301 305 310 315 319 320 319 319 318 318 318 318 318 319 320 320 321 322 322 322 321 320 317 312 310 311 311 311 312 310 309
225 228 227 224 223 226 231 235 235 233 233 233 234 235 233 231 231 231 235 239 244 251 257 263 272 280 286 290 291 293 295 297 300 306 311 316 319 320 319 318 318 317 317 317 318 318 319 319 320 320 320 320 319 318 317 314 313 313 313 312 313 313 311
227 227 224 223 225 229 234 238 238 238 236 231 230 232 230 227 228 231 234 238 242 248 255 264 273 281 287 290 291 293 295 297 301 307 313 316 318 318 318 318 317 317 317 317 318 319 319 319 320 319 319 318 318 316 316 315 315 314 314 314 314 314 312
225 222 221 224 228 233 238 241 243 242 234 227 227 227 226 227 230 231 233 236 239 245 256 266 274 281 285 288 291 293 294 296 302 308 312 315 317 317 318 318 318 318 318 319 319 320 320 320 319 318 317 316 315 315 315 316 316 316 317 316 315 315 314
221 220 221 225 232 239 245 246 246 242 230 223 224 225 224 227 231 233 234 236 237 243 256 268 275 280 285 288 291 291 293 297 303 309 312 314 317 318 319 320 320 320 321 321 321 321 320 319 318 317 315 314 314 315 316 317 317 318 318 319 319 319 318
220 219 221 229 237 245 251 249 246 243 230 220 221 225 225 228 233 237 238 237 237 245 259 270 276 280 285 288 290 291 294 299 305 310 313 315 317 319 320 321 322 323 323 323 322 321 320 318 317 315 313 313 315 316 317 318 318 318 320 322 322 321 319
221 221 225 235 243 249 250 244 240 238 228 219 218 221 224 231 237 239 239 237 240 249 262 270 275 280 285 287 289 291 295 300 306 312 315 316 317 319 321 322 323 324 323 322 321 320 319 317 315 313 313 315 317 318 319 319 319 320 322 323 322 320 317
225 229 236 242 245 243 239 232 229 229 225 219 215 216 225 235 237 235 235 236 241 252 263 270 276 281 284 286 289 292 297 302 308 313 315 316 317 319 321 322 323 323 322 321 320 319 318 315 314 313 314 316 318 319 319 319 320 321 323 323 321 318 316
233 238 243 242 237 230 225 222 221 218 215 213 214 221 232 237 234 231 232 237 246 257 265 271 276 280 282 286 290 294 299 304 310 313 315 316 318 320 321 322 322 321 321 320 319 318 316 314 314 314 316 318 319 319 319 319 321 322 322 322 320 319 317
238 238 239 236 228 220 219 220 219 216 214 217 225 234 238 236 231 231 234 242 252 261 267 271 275 278 282 287 292 296 301 306 310 313 314 317 319 319 320 321 321 321 320 320 318 317 315 314 314 315 317 318 319 319 319 320 322 322 323 322 322 321 320
238 236 235 234 226 220 221 225 227 227 227 231 236 239 237 233 231 233 238 247 256 261 265 270 274 278 283 289 294 298 303 307 311 313 315 317 319 320 320 321 320 320 320 318 317 316 315 315 315 316 318 319 320 320 320 321 323 323 324 325 325 324 323
238 237 235 233 229 225 226 230 232 232 234 236 236 235 233 232 232 236 243 249 255 260 264 269 274 279 285 291 295 299 303 307 310 313 315 318 319 320 320 320 319 319 318 317 316 316 316 316 317 319 320 321 321 321 322 323 325 326 327 328 328 327 325
238 240 237 235 233 229 227 229 230 230 231 233 233 232 232 233 235 239 244 250 255 259 264 270 275 281 287 292 296 299 303 308 311 312 315 318 319 318 318 318 319 318 317 316 316 317 318 319 320 322 322 322 323 323 325 326 328 329 330 330 329 327 325
239 242 240 238 235 229 224 224 224 226 229 230 231 232 234 236 239 242 246 251 255 260 265 271 277 283 289 293 296 300 304 308 310 312 315 316 317 316 316 317 318 317 316 317 318 319 320 322 323 324 324 324 325 326 328 330 331 331 330 329 327 325 324
236 240 239 236 232 226 220 218 221 224 228 230 232 234 237 239 242 245 248 252 256 262 267 273 280 286 291 294 298 302 305 307 310 311 313 314 315 315 316 316 316 316 317 318 320 322 324 325 325 325 325 326 328 330 331 331 331 330 328 327 325 323 322
234 236 235 232 230 227 223 221 223 224 227 232 236 238 239 241 243 246 249 254 259 264 269 276 283 289 293 297 300 303 304 306 308 310 312 313 314 314 315 315 315 316 319 322 324 325 326 326 326 327 328 330 331 332 331 330 329 328 326 325 323 322 322
232 234 235 233 231 231 229 228 228 228 232 236 239 240 241 242 245 248 251 255 260 265 272 280 286 290 295 298 301 302 304 306 307 309 311 312 312 313 313 314 316 319 322 324 325 326 326 327 328 329 330 331 332 331 330 328 327 326 325 324 323 322 322
234 236 237 234 231 231 232 233 233 234 237 239 240 242 244 247 251 253 255 258 262 269 277 283 286 292 297 300 301 302 304 305 306 308 309 310 310 312 313 314 318 321 323 325 325 326 328 329 330 331 331 331 331 329 328 327 327 326 325 324 323 323 322
235 238 237 232 230 232 234 236 237 238 239 241 242 245 250 255 259 261 263 265 268 275 280 282 286 294 299 300 301 302 303 304 305 306 308 309 309 311 313 315 319 322 323 324 326 327 329 330 331 331 331 330 329 328 327 326 326 325 324 324 324 323 323
236 238 234 228 228 232 235 237 238 239 240 242 246 251 258 266 270 271 272 272 273 277 279 282 288 295 299 300 300 301 302 302 303 305 307 308 308 310 313 316 319 322 324 325 327 328 329 330 330 329 328 328 327 326 326 325 325 324 324 324 324 324 323
234 232 227 225 227 232 235 237 238 240 243 246 249 255 262 268 273 277 280 279 278 280 281 284 290 294 296 297 298 299 301 301 302 304 305 306 307 309 313 316 320 322 324 326 327 327 328 328 327 327 326 326 326 325 325 324 324 324 324 324 325 325 325
228 226 223 226 231 234 238 242 244 246 245 245 248 252 252 256 265 275 280 280 280 283 284 286 289 292 293 295 297 299 300 300 300 301 303 304 306 309 313 317 320 323 324 325 325 325 325 325 325 325 325 325 325 324 324 324 324 324 325 326 327 328 328
224 225 226 230 237 240 245 249 249 245 241 241 246 252 254 256 264 272 275 276 279 283 286 286 287 289 292 295 297 299 299 298 298 299 301 303 305 308 312 317 320 322 323 323 323 323 323 323 323 324 324 324 324 324 324 324 325 326 327 328 329 330 330
223 226 228 233 239 240 241 244 242 238 240 243 247 252 255 258 263 268 270 274 278 282 284 285 287 289 292 294 296 297 296 295 296 298 300 301 303 308 313 317 320 321 320 320 320 321 321 322 323 323 323 323 323 323 324 325 326 328 329 331 332 332 332
225 228 231 234 237 236 239 247 248 242 241 243 247 252 255 256 260 265 269 272 277 280 282 285 286 288 290 292 294 294 293 294 296 297 297 299 302 308 313 317 318 318 318 318 319 320 320 321 322 322 322 322 322 323 325 326 327 329 331 333 334 334 333
226 230 233 235 236 239 246 251 249 243 241 244 248 252 254 255 261 267 270 273 276 279 281 283 285 285 288 291 293 293 292 293 294 294 295 297 302 308 312 315 315 315 315 316 318 319 320 321 322 322 322 322 323 324 326 327 329 331 333 335 335 334 334
229 233 237 238 237 240 246 247 244 244 246 249 251 253 255 257 263 268 271 273 276 279 281 282 283 285 288 290 291 291 291 292 292 291 293 297 302 307 310 312 312 313 314 316 317 319 320 320 321 321 322 323 324 325 327 328 331 333 335 335 335 335 335
Height
5799 5801 5803 5805 5806 5808 5809 5810 5811 5811 5811 5811 5811 5812 5812 5812 5812 5813 5813 5814 5815 5815 5816 5817 5818 5818 5818 5818 5818 5818 5818 5818 5818 5818 5817 5817 5816 5815 5814 5813 5811 5810 5808 5808 5806 5805 5804 5801 5796 5792 5790 5790 5789 5790 5791 5790 5788 5787 5785 5782 5780 5779 5777
5797 5799 5800 5802 5804 5805 5807 5808 5809 5809 5809 5809 5810 5810 5810 5810 5810 5811 5811 5812 5813 5813 5814 5815 5816 5816 5816 5816 5816 5816 5816 5816 5816 5816 5815 5815 5814 5812 5811 5810 5808 5807 5805 5805 5804 5803 5802 5801 5799 5794 5791 5788 5784 5783 5785 5786 5786 5785 5783 5781 5778 5776 5774
5795 5796 5797 5799 5801 5803 5804 5805 5806 5806 5806 5807 5807 5808 5808 5808 5809 5809 5810 5810 5811 5812 5812 5813 5813 5814 5814 5814 5814 5814 5815 5814 5814 5814 5813 5812 5811 5810 5808 5806 5805 5804 5803 5802 5801 5800 5799 5798 5797 5795 5792 5789 5785 5780 5778 5779 5780 5781 5780 5778 5776 5773 5771
5792 5793 5795 5797 5798 5800 5802 5803 5803 5803 5804 5805 5805 5806 5806 5806 5807 5807 5808 5809 5809 5810 5811 5811 5812 5812 5812 5812 5812 5812 5813 5812 5812 5812 5811 5810 5808 5807 5805 5804 5802 5801 5800 5799 5798 5797 5796 5795 5794 5792 5790 5788 5785 5781 5777 5775 5775 5775 5776 5775 5773 5770 5768
5789 5791 5793 5795 5795 5797 5799 5800 5800 5801 5802 5803 5803 5804 5804 5804 5805 5806 5807 5807 5808 5808 5809 5810 5810 5810 5810 5810 5810 5810 5810 5810 5810 5809 5808 5807 5806 5805 5803 5801 5800 5799 5797 5797 5796 5794 5793 5792 5791 5789 5788 5786 5783 5779 5776 5773 5771 5771 5771 5771 5770 5768 5765
5787 5789 5791 5792 5792 5794 5796 5797 5797 5798 5800 5801 5801 5801 5802 5802 5803 5804 5805 5805 5806 5807 5807 5808 5808 5808 5808 5808 5808 5808 5808 5808 5808 5807 5806 5805 5803 5802 5800 5798 5797 5796 5795 5794 5793 5791 5790 5789 5787 5786 5785 5783 5781 5777 5774 5771 5769 5768 5767 5767 5766 5764 5762
5785 5786 5787 5789 5790 5792 5793 5794 5795 5796 5797 5798 5799 5799 5799 5800 5801 5802 5803 5803 5804 5805 5806 5806 5806 5806 5806 5806 5806 5806 5806 5806 5806 5805 5804 5802 5801 5799 5797 5796 5794 5793 5792 5791 5790 5788 5787 5786 5784 5783 5782 5780 5778 5775 5772 5769 5767 5766 5765 5763 5761 5760 5759
5783 5784 5785 5787 5788 5789 5790 5791 5792 5793 5795 5796 5796 5796 5797 5798 5799 5800 5800 5801 5802 5803 5804 5805 5804 5804 5804 5804 5804 5804 5804 5804 5803 5802 5801 5800 5798 5796 5795 5793 5792 5791 5789 5788 5787 5785 5784 5782 5781 5780 5779 5777 5775 5773 5769 5766 5763 5762 5762 5760 5758 5756 5755
5780 5782 5783 5785 5786 5787 5788 5789 5790 5791 5793 5793 5793 5794 5795 5796 5797 5798 5799 5799 5800 5802 5802 5803 5802 5802 5802 5802 5802 5802 5802 5801 5801 5800 5799 5797 5796 5794 5792 5791 5790 5788 5787 5785 5784 5782 5780 5779 5777 5776 5774 5773 5772 5770 5768 5764 5761 5759 5758 5757 5755 5753 5751
5778 5779 5781 5782 5784 5785 5786 5786 5788 5789 5791 5791 5791 5792 5793 5794 5795 5796 5797 5798 5799 5800 5800 5801 5800 5800 5800 5800 5800 5800 5799 5799 5798 5797 5796 5795 5793 5791 5790 5788 5787 5786 5784 5782 5781 5779 5777 5775 5773 5772 5770 5769 5768 5767 5765 5763 5760 5757 5756 5754 5752 5750 5748
5775 5777 5778 5780 5782 5782 5783 5784 5786 5787 5788 5789 5790 5790 5791 5792 5793 5794 5795 5796 5797 5798 5798 5799 5798 5798 5798 5798 5797 5797 5797 5796 5796 5795 5794 5793 5791 5789 5788 5786 5785 5783 5782 5780 5778 5776 5774 5772 5771 5769 5767 5766 5765 5764 5762 5761 5758 5756 5754 5752 5750 5748 5745
5773 5775 5776 5778 5779 5780 5781 5782 5784 5785 5786 5787 5788 5788 5789 5790 5791 5792 5793 5794 5795 5796 5797 5797 5796 5796 5796 5795 5795 5795 5794 5794 5793 5792 5791 5790 5789 5787 5786 5784 5782 5781 5779 5777 5775 5774 5772 5770 5768 5766 5765 5763 5762 5760 5759 5757 5755 5754 5752 5749 5747 5746 5743
5771 5773 5774 5776 5777 5778 5779 5780 5781 5782 5783 5784 5785 5786 5787 5788 5789 5790 5791 5792 5793 5794 5794 5795 5794 5794 5794 5793 5793 5793 5792 5791 5791 5790 5789 5787 5786 5784 5783 5782 5780 5778 5776 5775 5773 5771 5769 5768 5766 5764 5762 5760 5759 5757 5756 5754 5752 5750 5749 5746 5744 5743 5741
5769 5770 5772 5774 5775 5777 5778 5779 5779 5780 5781 5782 5783 5784 5785 5786 5787 5788 5789 5789 5791 5792 5792 5792 5792 5792 5792 5791 5791 5790 5790 5789 5788 5788 5786 5785 5783 5782 5781 5779 5777 5776 5774 5772 5770 5768 5767 5765 5763 5762 5760 5758 5756 5754 5753 5751 5749 5747 5745 5743 5741 5740 5738
5767 5768 5770 5772 5774 5775 5776 5777 5778 5778 5778 5779 5781 5781 5782 5784 5785 5786 5786 5787 5788 5789 5790 5790 5790 5790 5790 5789 5788 5788 5787 5787 5786 5785 5784 5782 5781 5779 5778 5776 5775 5773 5771 5769 5767 5766 5764 5762 5761 5759 5757 5755 5753 5751 5750 5748 5746 5743 5741 5739 5737 5736 5734
5765 5767 5768 5770 5772 5773 5774 5775 5775 5776 5776 5777 5779 5780 5781 5782 5783 5784 5784 5785 5786 5787 5788 5788 5788 5788 5788 5787 5786 5785 5785 5784 5784 5782 5781 5779 5778 5776 5775 5773 5771 5770 5768 5766 5764 5763 5761 5760 5758 5756 5754 5752 5750 5748 5747 5745 5743 5740 5738 5736 5734 5732 5731
5765 5766 5767 5769 5770 5771 5772 5773 5773 5773 5774 5775 5777 5778 5779 5781 5781 5782 5782 5783 5784 5785 5786 5786 5786 5786 5785 5785 5784 5783 5782 5782 5781 5780 5778 5776 5775 5773 5771 5770 5768 5767 5765 5763 5762 5760 5759 5757 5755 5753 5751 5749 5747 5745 5743 5741 5739 5737 5735 5733 5731 5729 5728
5764 5765 5766 5767 5768 5769 5770 5770 5771 5771 5772 5774 5775 5777 5778 5778 5779 5780 5780 5781 5782 5783 5784 5784 5784 5783 5783 5782 5781 5781 5780 5779 5778 5777 5776 5774 5772 5770 5768 5767 5765 5764 5762 5760 5759 5757 5756 5754 5752 5750 5748 5746 5745 5742 5740 5739 5737 5734 5732 5729 5728 5726 5724
5763 5764 5765 5766 5766 5767 5768 5768 5769 5770 5771 5772 5774 5775 5776 5776 5777 5778 5779 5780 5781 5781 5781 5781 5781 5781 5780 5780 5779 5778 5777 5777 5776 5775 5773 5771 5769 5767 5765 5764 5762 5761 5759 5757 5756 5754 5753 5751 5749 5747 5745 5743 5741 5740 5738 5736 5734 5731 5729 5727 5725 5723 5721
5761 5762 5763 5764 5765 5765 5766 5767 5768 5769 5770 5771 5772 5773 5774 5774 5775 5776 5777 5778 5778 5779 5779 5779 5779 5779 5778 5777 5777 5776 5775 5774 5773 5772 5770 5768 5766 5764 5763 5761 5759 5758 5756 5754 5753 5751 5750 5748 5746 5745 5743 5741 5739 5737 5735 5733 5730 5728 5726 5723 5721 5719 5718
5760 5761 5762 5763 5763 5764 5764 5765 5766 5767 5768 5769 5770 5771 5772 5772 5773 5774 5775 5775 5776 5777 5777 5777 5776 5776 5775 5775 5774 5773 5773 5772 5770 5769 5767 5765 5764 5762 5760 5758 5757 5755 5753 5752 5750 5749 5747 5745 5744 5742 5740 5738 5736 5734 5732 5729 5727 5725 5722 5720 5718 5716 5714
5758 5759 5760 5761 5761 5762 5763 5764 5765 5766 5766 5767 5768 5769 5769 5770 5771 5772 5772 5773 5774 5774 5774 5774 5774 5773 5773 5772 5772 5771 5770 5769 5768 5766 5764 5762 5761 5759 5757 5756 5754 5753 5751 5749 5748 5746 5744 5742 5740 5738 5736 5735 5733 5731 5728 5726 5724 5721 5719 5717 5715 5713 5711
5756 5757 5758 5759 5760 5760 5761 5762 5763 5764 5764 5765 5766 5767 5767 5768 5769 5770 5770 5771 5772 5772 5771 5771 5771 5771 5770 5770 5769 5768 5768 5766 5765 5763 5761 5760 5758 5756 5755 5754 5752 5751 5749 5747 5745 5744 5741 5739 5737 5736 5734 5732 5729 5727 5725 5723 5721 5718 5716 5714 5712 5710 5709
5755 5756 5756 5757 5758 5758 5759 5760 5761 5762 5763 5764 5765 5765 5766 5766 5767 5768 5768 5769 5769 5769 5769 5768 5768 5768 5768 5767 5766 5766 5765 5763 5762 5760 5758 5757 5755 5754 5753 5751 5750 5748 5746 5744 5743 5741 5739 5737 5735 5733 5731 5729 5727 5724 5722 5720 5718 5716 5714 5712 5710 5708 5706
5753 5754 5755 5755 5756 5757 5757 5758 5759 5760 5761 5762 5763 5764 5764 5765 5765 5766 5766 5766 5766 5766 5766 5766 5766 5765 5765 5764 5764 5763 5762 5760 5759 5757 5756 5755 5753 5752 5750 5749 5747 5746 5744 5742 5740 5738 5736 5734 5732 5731 5729 5727 5724 5722 5720 5718 5716 5714 5711 5709 5707 5705 5703
5751 5752 5753 5754 5755 5756 5756 5757 5758 5759 5760 5761 5761 5762 5762 5763 5764 5764 5764 5764 5763 5763 5763 5763 5763 5763 5762 5762 5761 5760 5759 5758 5756 5755 5754 5753 5751 5750 5748 5747 5745 5743 5741 5739 5737 5736 5734 5732 5730 5728 5726 5724 5722 5720 5718 5716 5714 5711 5709 5707 5704 5701 5699
5749 5750 5751 5752 5754 5754 5755 5755 5756 5757 5758 5759 5759 5760 5760 5761 5761 5761 5761 5760 5760 5760 5760 5760 5760 5760 5760 5759 5758 5757 5756 5755 5754 5752 5751 5750 5749 5747 5746 5744 5742 5741 5739 5737 5735 5733 5732 5730 5727 5725 5723 5721 5719 5717 5715 5713 5711 5709 5706 5703 5700 5697 5695
5746 5748 5749 5750 5752 5752 5753 5754 5755 5756 5756 5756 5757 5758 5758 5758 5758 5757 5757 5757 5757 5757 5758 5758 5758 5758 5757 5756 5755 5754 5753 5752 5751 5750 5749 5748 5747 5745 5743 5742 5740 5738 5736 5735 5733 5731 5729 5727 5725 5723 5721 5719 5717 5715 5712 5710 5708 5705 5703 5700 5697 5694 5691
5744 5745 5746 5748 5749 5750 5750 5751 5753 5753 5753 5754 5754 5755 5755 5755 5755 5754 5754 5754 5754 5755 5755 5756 5756 5755 5754 5753 5753 5752 5751 5750 5749 5748 5747 5746 5744 5743 5741 5739 5737 5736 5734 5732 5730 5729 5727 5725 5723 5721 5719 5716 5714 5712 5710 5707 5705 5702 5700 5697 5694 5691 5688
5741 5742 5744 5745 5746 5747 5748 5749 5750 5750 5750 5751 5752 5752 5752 5752 5751 5751 5751 5751 5752 5752 5753 5753 5753 5752 5751 5751 5750 5749 5748 5747 5746 5745 5744 5743 5741 5740 5738 5736 5735 5733 5732 5730 5728 5726 5724 5723 5720 5718 5716 5714 5712 5710 5707 5705 5702 5699 5696 5693 5690 5687 5684
5738 5740 5741 5742 5743 5744 5745 5745 5746 5746 5747 5748 5749 5749 5749 5749 5749 5748 5749 5749 5750 5750 5751 5751 5750 5749 5748 5748 5747 5746 5745 5745 5744 5743 5741 5740 5739 5737 5736 5734 5732 5731 5729 5727 5725 5723 5722 5720 5718 5716 5714 5712 5710 5707 5705 5702 5699 5696 5693 5690 5687 5683 5680
5737 5738 5738 5740 5740 5741 5742 5742 5743 5743 5744 5745 5745 5745 5746 5747 5747 5746 5746 5747 5747 5748 5748 5748 5747 5746 5746 5745 5744 5743 5743 5742 5741 5740 5738 5737 5736 5734 5733 5731 5730 5728 5726 5725 5723 5721 5720 5718 5716 5714 5712 5710 5707 5705 5702 5699 5696 5693 5690 5686 5683 5679 5676
5734 5734 5736 5737 5737 5738 5739 5740 5740 5740 5741 5742 5742 5743 5743 5744 5744 5744 5744 5744 5745 5745 5745 5745 5744 5743 5743 5742 5741 5741 5740 5739 5738 5737 5735 5734 5733 5731 5730 5728 5727 5725 5724 5722 5720 5719 5717 5716 5714 5712 5710 5708 5705 5702 5699 5696 5693 5689 5686 5683 5679 5676 5672
5729 5730 5732 5734 5734 5736 5737 5737 5737 5737 5738 5739 5740 5740 5741 5741 5741 5742 5742 5742 5742 5742 5742 5741 5741 5740 5740 5739 5738 5738 5737 5736 5735 5734 5732 5731 5730 5729 5727 5726 5724 5723 5721 5720 5718 5716 5715 5713 5712 5709 5707 5705 5702 5699 5696 5693 5690 5686 5683 5680 5676 5673 5669
5725 5726 5729 5730 5731 5733 5734 5733 5734 5735 5736 5736 5737 5737 5738 5739 5739 5739 5739 5739 5739 5739 5739 5738 5737 5737 5737 5736 5736 5735 5734 5733 5732 5731 5729 5728 5727 5726 5724 5723 5721 5720 5719 5717 5715 5714 5712 5711 5709 5707 5704 5702 5699 5696 5693 5690 5687 5684 5680 5677 5673 5670 5666
5722 5723 5726 5727 5728 5729 5730 5730 5731 5732 5733 5734 5734 5735 5736 5736 5736 5736 5736 5736 5736 5736 5735 5735 5735 5734 5734 5733 5732 5731 5730 5730 5729 5728 5727 5725 5724 5723 5721 5720 5719 5717 5716 5715 5713 5712 5710 5708 5706 5704 5702 5699 5696 5693 5690 5687 5684 5681 5677 5674 5670 5667 5664
5719 5720 5722 5723 5724 5725 5727 5728 5729 5729 5730 5731 5732 5732 5733 5733 5733 5734 5733 5733 5733 5733 5732 5732 5732 5731 5731 5730 5729 5728 5727 5726 5725 5725 5724 5722 5721 5720 5718 5717 5716 5715 5714 5712 5711 5709 5707 5706 5704 5702 5699 5696 5693 5690 5687 5684 5681 5678 5674 5671 5668 5665 5662